Weather in Bykhovo

Russia / Bryansk Oblast     52°25′38″N   34°40′18″E
temp.,
°C
wind,
m/s
gust,
m/s
humid.,
%
clouds,
%
prec.,
mm/h
press.,
hPa
HPBL,
m
12 may, wed
wed1200:00+7e411900 0.0 1023259
03:00+5e412940 0.0 1024347
06:00+6e4119127 0.0 1024320
09:00+11e696828 0.0 1023672
12:00+13e5762100 0.0 10211339
15:00+13ene6868100 0.5 10191254
18:00+12ene687498 0.4 1017817
21:00+8sse2396100 2.1 101683
13 may, thu
thu1300:00+8ene41096100 3.5 1014290
03:00+8ese6129246 6.3 1014613
06:00+6se5119671 0.0 1015431
09:00+10se6884100 0.1 1015821
12:00+13s6865100 0.2 10141545
15:00+12s467199 0.2 1015779
18:00+13ssw357123 0.1 1014787
21:00+9ese11815 0.1 101510
14 may, fri
fri1400:00+8ese3389100 0.0 101543
03:00+8ese4884100 0.0 1015137
06:00+10ese51186100 0.0 1014254
09:00+15ese61285100 0.3 1012510
12:00+20sse697434 0.1 10111047
15:00+21s797016 2.1 10101295
18:00+20s5879100 1.1 1009625
21:00+15s33915 1.7 101028
15 may, sat
sat1500:00+14ssw2291100 0.4 100919
03:00+13sse339262 0.4 100944
06:00+13sse349480 0.0 100977
09:00+17s468235 0.0 1009462
12:00+20ssw676664 0.7 10091327
15:00+19sw6770100 2.2 10101158
18:00+16wsw4884100 1.1 1011632
21:00+13ssw23883 1.1 101222
16 may, sun
sun1600:00+11sw229131 0.0 101327
03:00+10ssw33925 0.0 101335
06:00+11s35925 0.0 1014103
09:00+16ssw34770 0.0 1015489
12:00+20ssw3465100 0.3 10141161
15:00+21s346118 0.8 10141331
18:00+20sse2371100 0.3 1014822
21:00+16e2281100 0.4 101420